Calamaro (Edoardo Vignali)
Informazioni generali
Calamaro (Edoardo Vignali)
Calamaro
Edoardo Vignali
-
-
-
-
-
Articoli redatti
DateTitleHitsRating
27/10/10 17:36:37Range Scanner con Octagon2303 / 12
06/10/10 12:20:52Usare un TLC5940 come Servo Port Expander2853 / 6
24/09/10 10:44:11Imparare a leggere i Condensatori4894 / 8
04/08/10 13:18:06Bussola Digitale4097 / 7
04/08/10 10:25:44Sensore di umidità e temperatura SHT152628 / 3
04/08/10 09:14:32Libreria Metro e gestione di intervalli di tempo senza delay2910 / 3
03/08/10 17:04:49Arduino e libreria CapSense3029 / 5
03/08/10 15:55:00Arduino come misuratore di frequenze3617 / 5
03/08/10 15:15:09Tachimetro per robot2269 / 8
02/08/10 19:32:47Collegare arduino alla TV3281 / 9
02/08/10 00:59:07Approfondimento su sensori di temperatura2902 / 5
01/08/10 18:20:47Arduino & RTC5313 / 6
31/07/10 15:05:34Display I2C3182 / 7
31/07/10 13:55:27Calibrazione colori Lampada RBG1855 / 1
30/07/10 16:13:45Lampada RBG2976 / 4
29/07/10 00:18:43Arduino Standalone3068 / 6
23/07/10 12:10:15Keypad I2C3310 / 6
19/07/10 14:07:32Arduino e Ubuntu4057 / 4
10/07/10 08:13:12Scooterupter1831 / 10
18/06/10 17:15:14Upload bootloader arduino senza programmer AVR (BitBangMode)4497 / 2
24/05/10 15:51:08Arduino e Porta Seriale4062 / 3
23/05/10 15:50:39Foratura1986 / 2
20/05/10 09:04:43Libreria Tone e RTTL4369 / 4
19/05/10 15:22:48Come modificare un Servomotore4617 / 8
19/05/10 09:58:33Timer Bromografo5185 / 3
19/05/10 08:56:54Sviluppo e Incisione2290 / 4
19/05/10 08:06:08Potenziometri Digitali (DS1669)3197 / 3
15/05/10 20:46:51Manta Prototype Calamaro's Version2066 / 4
13/05/10 10:59:39Breve guida a Cadsoft Eagle (Master)4674 / 4
12/05/10 09:05:10Robot Seriale2425 / 10
04/05/10 20:34:38Come costruirsi un bromografo (Esposizione)2865 / 6
04/05/10 19:52:16Come interfacciare il Wii Nunchuck e Arduino3215 / 6
03/05/10 09:19:35TCL5940 PWM port expander2728 / 2
02/05/10 09:45:00Liquid Crystal e Arduino5519 / 13
01/05/10 12:53:31Come funziona la Breadboard4106 / 2
01/05/10 09:26:13Come scegliere i Driver per motori4199 / 9
30/04/10 09:42:54Comunicare con Arduino tramite IR4913 / 4
29/04/10 17:05:11Motori DC3313 / 3
27/04/10 17:32:54Motori Stepper4916 / 6
27/04/10 15:39:33Controllare Arduino con un controller della Play Station 24030 / 2
26/04/10 10:48:00Tutorial GPIO port expander e Arduino5167 / 2
19/04/10 16:55:43Il protocollo I2C6174 / 7

Gioblu Robotics © 2010 - 2012 · Sitemap · privacy

gioscarab@gmail.com

Gioblu BOTServer è online dal 10 Aprile 2010 - 319.232 Visite - 1.027.175 Pagine visualizzate - 182.309 Visitatori unici - 536 utenti attivi